Simultaneous Nadir Overpasses (SNOs) Predictions

Prediction of SNOs between GOES-17 and NOAA-21 Satellite Orbit:

Table of predicted SNOs for the next 14.0 days since TLE Epoch: 8/2/2024
Index Date Time (GOES-17) GOES-17 Lat,Lon NOAA-21 Lat,Lon Distance(km) Time Diff (sec)
1 08/03/2024 08:33:12 -0.03,-104.67 0.42,-106.62 222.54 80
2 08/04/2024 08:11:48 -0.04,-104.68 -0.62,-102.10 294.23 80
3 08/05/2024 20:33:46 0.04,-104.71 -0.56,-107.40 307.45 80
4 08/06/2024 20:17:41 0.04,-104.71 0.43,-102.87 209.88 80
5 08/08/2024 08:39:31 -0.04,-104.71 0.70,-108.15 390.90 80
6 08/09/2024 08:18:06 -0.04,-104.72 -0.29,-103.61 126.33 80
7 08/10/2024 20:40:03 0.05,-104.74 -0.87,-108.92 475.30 80
8 08/11/2024 20:23:59 0.05,-104.75 0.13,-104.38 42.02 80
9 08/14/2024 08:27:04 -0.06,-104.75 -0.00,-105.13 42.02 80
10 08/15/2024 08:05:39 -0.06,-104.76 -1.01,-100.59 474.84 80
